Showing default

KUIPER-00436, 68939

Orbit data source: Space-Track

KUIPER-00436, 68939 is a payload satellite owned by Kuiper Systems (US) in LEO that was launched on Thu, 30 Apr 2026 UTC via an ARIANE 64 launch vehicle from the French Guiana (FRGUI). Payload-class satellites include a variety of spacecraft equipped with specific instruments for various scientific and technological missions. These include communications satellites like Starlink; space stations such as the ISS; scientific satellites like the Hubble; Earth observation satellites from companies like Planet Labs, Umbra, and HawkEye 360; GPS; miniature CubeSats for education and research; and military/defense satellites.

Loading next visibility...
Identifier
68939, 2026-098W
Orbit
LEO
Country
Flag of USUS
Related business
Manufacturer
Kuiper Systems
Mission
Operational spacecraft
Bus & Motor
KUIPER, Unknown motor
Mass
~490 kg wet, ~490 kg dry
Launch date (UTC)
2026-04-30 (1 month ago)
Launch vehicle
ARIANE 64
Launch site
French Guiana (FRGUI)
Object type
Payload
Rocket body
Debris
Shape & HBR
Unknown
Radar Cross Section
Large (>1 m²)

Expand to show TLE details & history
Last TLE update: 3 days ago

TLE from 3 days ago
0 KUIPER-00436
1 68939U 26098W   26155.11329166  .00035664  00000-0  11087-2 0  9991
2 68939  51.8750 131.1186 0011514 101.7299 258.4979 15.32937334  5330
Epoch: 2026-06-04T02:43Z
TLE epoch observation values (Epoch: 2026-06-04T02:43:08.399Z)
Latitude
0.00004°
Longitude
-162.22859°
Altitude
469.396 km
Speed
7.632 km/s
True Right ascension
08h 44m 28s
True Declination
0° 00' 00"
Sunlit
Object was in daylight at epoch
Visualization orbit readout
Latitude
Unknown
Longitude
Unknown
Altitude
Unknown
Speed
Unknown
Apparent Right ascension
Unknown
Apparent Declination
Unknown
Sunlit
N/A
Visualization observer readout
Local Sidereal Time
03:42:39
Azimuth
Unknown
Elevation
Unknown
Doppler factor
Unknown
Orbital elements
Apogee altitude
475.402 km
Perigee altitude
459.638 km
Semi-major axis
6,845.657 km
Eccentricity
0.00115
Inclination
51.875°
RAAN
131.1186°
Arg. of periapsis
101.7299°
True anomaly
258.36865°
Mean anomaly
258.4979°
Eccentric anomaly
258.43327°
Mean motion
3.83196 °/min
Orbital period
93.95 mins
BSTAR
0.0011087
Loading maneuver chart data...
Computing Atmospheric mass density...
Loading historical data...
Loading historical data...
Loading historical data...
Loading historical data...
Loading historical data...
Loading historical data...
Loading historical data...

Documentation

Showing up to 5 results
|